When you browse on this site, cookies collect data to enhance your experience and personalize the content and advertising you see.
Visit our Privacy Policy to learn more. By continuing to use the site, you agree to this use of cookies and data.
  • In Deutschland
  • Länderverzeichnis
  • Für 7 Tage
  • Wassertemperatur
  • Satellitenkarten
  • Wetterkarte
  • Widgets
  • user-avatar
    Anmelden

    Stündliche Wetter Albany

    Heute, 22 Februar, Freitag

    Zeit Temperatur Niederschläge Wind Luftdruck Luftfeuchtigkeit
    00:00 +19°C° 0 mm 2 m/S 755 mmHg 90%
    01:00 +19°C° 0 mm 2 m/S 755 mmHg 90%
    02:00 +18°C° 0 mm 2 m/S 755 mmHg 91%
    03:00 +18°C° 0 mm 2 m/S 755 mmHg 91%
    04:00 +18°C° 0 mm 2 m/S 755 mmHg 92%
    05:00 +18°C° 0 mm 2 m/S 755 mmHg 92%
    06:00 +18°C° 0 mm 2 m/S 755 mmHg 88%
    07:00 +19°C° 0 mm 2 m/S 755 mmHg 83%
    08:00 +20°C° 0 mm 2 m/S 756 mmHg 78%
    09:00 +23°C° 0 mm 2 m/S 756 mmHg 68%
    10:00 +25°C° 0 mm 2 m/S 755 mmHg 58%
    11:00 +28°C° 0 mm 2 m/S 755 mmHg 48%
    12:00 +28°C° 0 mm 3 m/S 755 mmHg 47%
    13:00 +29°C° 0 mm 4 m/S 755 mmHg 47%
    14:00 +29°C° 0 mm 5 m/S 755 mmHg 46%
    15:00 +27°C° 0 mm 5 m/S 755 mmHg 50%
    16:00 +26°C° 0 mm 4 m/S 755 mmHg 55%
    17:00 +23°C° 0 mm 4 m/S 755 mmHg 59%
    18:00 +22°C° 0 mm 3 m/S 755 mmHg 66%
    19:00 +20°C° 0 mm 2 m/S 755 mmHg 73%
    20:00 +20°C° 0 mm 1 m/S 756 mmHg 80%
    21:00 +19°C° 0 mm 1 m/S 756 mmHg 82%
    22:00 +19°C° 0 mm 1 m/S 757 mmHg 83%
    23:00 +19°C° 0 mm 1 m/S 757 mmHg 85%

    Morgen, 23 Februar, Samstag

    Zeit Temperatur Niederschläge Wind Luftdruck Luftfeuchtigkeit
    00:00 +19°C° 0 mm 1 m/S 757 mmHg 86%
    01:00 +19°C° 0 mm 1 m/S 757 mmHg 86%
    02:00 +19°C° 0 mm 1 m/S 756 mmHg 87%
    03:00 +18°C° 0 mm 1 m/S 756 mmHg 88%
    04:00 +18°C° 0 mm 1 m/S 756 mmHg 89%
    05:00 +18°C° 0 mm 1 m/S 756 mmHg 90%
    06:00 +20°C° 0 mm 1 m/S 757 mmHg 84%
    07:00 +21°C° 0 mm 1 m/S 757 mmHg 78%
    08:00 +23°C° 0 mm 1 m/S 757 mmHg 72%
    09:00 +25°C° 0 mm 1 m/S 757 mmHg 62%
    10:00 +28°C° 0 mm 1 m/S 757 mmHg 52%
    11:00 +31°C° 0 mm 1 m/S 757 mmHg 42%
    12:00 +31°C° 0 mm 2 m/S 756 mmHg 41%
    13:00 +31°C° 0 mm 3 m/S 756 mmHg 40%
    14:00 +32°C° 0 mm 4 m/S 756 mmHg 39%
    15:00 +29°C° 0 mm 4 m/S 756 mmHg 48%
    16:00 +27°C° 0 mm 4 m/S 756 mmHg 57%
    17:00 +25°C° 0 mm 4 m/S 756 mmHg 66%
    18:00 +22°C° 0 mm 3 m/S 756 mmHg 72%
    19:00 +21°C° 0 mm 2 m/S 757 mmHg 79%
    20:00 +20°C° 0 mm 2 m/S 758 mmHg 86%
    21:00 +21°C° 0 mm 1 m/S 758 mmHg 88%
    22:00 +21°C° 0 mm 1 m/S 759 mmHg 89%
    23:00 +21°C° 0 mm 1 m/S 759 mmHg 91%

    übermorgen, 24 Februar, Sonntag

    Zeit Temperatur Niederschläge Wind Luftdruck Luftfeuchtigkeit
    00:00 +21°C° 0 mm 1 m/S 759 mmHg 92%
    01:00 +20°C° 0 mm 2 m/S 759 mmHg 92%
    02:00 +20°C° 0 mm 2 m/S 759 mmHg 93%
    03:00 +19°C° 0 mm 2 m/S 759 mmHg 93%
    04:00 +19°C° 0 mm 2 m/S 759 mmHg 93%
    05:00 +19°C° 0 mm 3 m/S 760 mmHg 93%
    06:00 +20°C° 0 mm 3 m/S 760 mmHg 86%
    07:00 +20°C° 0 mm 3 m/S 760 mmHg 80%
    08:00 +21°C° 0 mm 3 m/S 761 mmHg 74%
    09:00 +22°C° 0 mm 3 m/S 761 mmHg 67%
    10:00 +25°C° 0 mm 3 m/S 761 mmHg 60%
    11:00 +26°C° 0 mm 4 m/S 762 mmHg 53%
    12:00 +26°C° 0 mm 4 m/S 761 mmHg 53%
    13:00 +26°C° 0 mm 5 m/S 761 mmHg 53%
    14:00 +26°C° 0 mm 5 m/S 761 mmHg 53%
    15:00 +25°C° 0 mm 5 m/S 761 mmHg 55%
    16:00 +23°C° 0 mm 6 m/S 761 mmHg 58%
    17:00 +22°C° 0 mm 6 m/S 761 mmHg 61%
    18:00 +21°C° 0 mm 6 m/S 761 mmHg 67%
    19:00 +20°C° 0 mm 6 m/S 762 mmHg 73%
    20:00 +19°C° 0 mm 6 m/S 762 mmHg 79%
    21:00 +19°C° 0 mm 6 m/S 763 mmHg 79%
    22:00 +19°C° 0 mm 6 m/S 763 mmHg 80%
    23:00 +17°C° 0 mm 6 m/S 763 mmHg 81%

    25 Februar, Montag

    Zeit Temperatur Niederschläge Wind Luftdruck Luftfeuchtigkeit
    00:00 +17°C° 0 mm 5 m/S 763 mmHg 81%
    01:00 +17°C° 0 mm 5 m/S 763 mmHg 82%
    02:00 +17°C° 0 mm 5 m/S 763 mmHg 82%
    03:00 +17°C° 0 mm 5 m/S 762 mmHg 84%
    04:00 +17°C° 0 mm 5 m/S 762 mmHg 85%
    05:00 +17°C° 0 mm 5 m/S 762 mmHg 86%
    06:00 +19°C° 0 mm 5 m/S 762 mmHg 83%
    07:00 +20°C° 0 mm 5 m/S 763 mmHg 79%
    08:00 +21°C° 0 mm 6 m/S 763 mmHg 75%
    09:00 +22°C° 0 mm 6 m/S 763 mmHg 71%
    10:00 +23°C° 0 mm 6 m/S 763 mmHg 68%
    11:00 +24°C° 0 mm 6 m/S 763 mmHg 64%
    12:00 +24°C° 0 mm 7 m/S 762 mmHg 64%
    13:00 +24°C° 0 mm 7 m/S 761 mmHg 64%
    14:00 +26°C° 0 mm 7 m/S 761 mmHg 64%
    15:00 +24°C° 0 mm 7 m/S 761 mmHg 66%
    16:00 +23°C° 0 mm 7 m/S 760 mmHg 69%
    17:00 +22°C° 0 mm 8 m/S 760 mmHg 71%
    18:00 +21°C° 0 mm 8 m/S 761 mmHg 75%
    19:00 +21°C° 0 mm 8 m/S 761 mmHg 80%
    20:00 +20°C° 0 mm 8 m/S 761 mmHg 84%
    21:00 +20°C° 0 mm 8 m/S 761 mmHg 84%
    22:00 +20°C° 0 mm 8 m/S 761 mmHg 84%
    23:00 +20°C° 0 mm 8 m/S 761 mmHg 83%

    26 Februar, Dienstag

    Zeit Temperatur Niederschläge Wind Luftdruck Luftfeuchtigkeit
    00:00 +20°C° 0 mm 8 m/S 760 mmHg 84%
    01:00 +20°C° 0 mm 7 m/S 760 mmHg 85%
    02:00 +20°C° 0 mm 7 m/S 759 mmHg 86%
    03:00 +20°C° 0 mm 7 m/S 759 mmHg 87%
    04:00 +20°C° 0 mm 7 m/S 759 mmHg 88%
    05:00 +20°C° 0 mm 7 m/S 758 mmHg 88%
    06:00 +21°C° 0 mm 6 m/S 758 mmHg 84%
    07:00 +21°C° 0 mm 6 m/S 758 mmHg 80%
    08:00 +22°C° 0 mm 5 m/S 759 mmHg 75%
    09:00 +26°C° 0 mm 5 m/S 758 mmHg 67%
    10:00 +28°C° 0 mm 4 m/S 758 mmHg 59%
    11:00 +30°C° 0 mm 4 m/S 757 mmHg 50%
    12:00 +32°C° 0 mm 4 m/S 756 mmHg 48%
    13:00 +33°C° 0 mm 4 m/S 756 mmHg 46%
    14:00 +34°C° 0 mm 5 m/S 755 mmHg 43%
    15:00 +30°C° 0 mm 4 m/S 755 mmHg 51%
    16:00 +28°C° 0 mm 4 m/S 755 mmHg 59%
    17:00 +26°C° 0 mm 4 m/S 755 mmHg 66%
    18:00 +25°C° 0 mm 3 m/S 756 mmHg 75%
    19:00 +22°C° 0 mm 3 m/S 756 mmHg 83%
    20:00 +21°C° 0 mm 3 m/S 757 mmHg 92%
    21:00 +20°C° 0 mm 2 m/S 757 mmHg 93%
    22:00 +20°C° 0 mm 2 m/S 757 mmHg 94%
    23:00 +20°C° 0 mm 2 m/S 757 mmHg 96%

    27 Februar, Mittwoch

    Zeit Temperatur Niederschläge Wind Luftdruck Luftfeuchtigkeit
    00:00 +20°C° 0 mm 3 m/S 757 mmHg 93%
    01:00 +20°C° 0 mm 3 m/S 757 mmHg 91%
    02:00 +20°C° 0 mm 4 m/S 757 mmHg 88%
    03:00 +20°C° 0 mm 4 m/S 757 mmHg 88%
    04:00 +20°C° 0 mm 4 m/S 757 mmHg 87%
    05:00 +20°C° 0 mm 4 m/S 757 mmHg 86%
    06:00 +20°C° 0 mm 4 m/S 757 mmHg 84%
    07:00 +20°C° 0 mm 4 m/S 758 mmHg 83%
    08:00 +21°C° 0 mm 4 m/S 758 mmHg 81%
    09:00 +21°C° 0 mm 4 m/S 758 mmHg 80%
    10:00 +21°C° 0 mm 4 m/S 758 mmHg 80%
    11:00 +21°C° 0 mm 4 m/S 758 mmHg 79%
    12:00 +22°C° 0 mm 4 m/S 758 mmHg 73%
    13:00 +23°C° 0 mm 4 m/S 758 mmHg 68%
    14:00 +26°C° 0 mm 4 m/S 757 mmHg 62%
    15:00 +25°C° 0 mm 4 m/S 757 mmHg 65%
    16:00 +23°C° 0 mm 4 m/S 757 mmHg 67%
    17:00 +22°C° 0 mm 4 m/S 757 mmHg 70%
    18:00 +21°C° 0 mm 3 m/S 758 mmHg 75%
    19:00 +20°C° 0 mm 2 m/S 758 mmHg 81%
    20:00 +19°C° 0 mm 2 m/S 758 mmHg 86%
    21:00 +19°C° 0 mm 2 m/S 758 mmHg 87%
    22:00 +19°C° 0 mm 2 m/S 758 mmHg 89%
    23:00 +18°C° 0 mm 3 m/S 758 mmHg 91%
    Mehr zeigen